Regional Weather Roundup
Issued by NWS

Home | Current Version | Previous Version | Text Only | Print | Product List | Glossary On
Versions: 1 2 3 4 5 6 7 8 9 10 11 12 13 14 15 16 17 18 19 20 21 22 23 24 25 26 27 28 29 30 31 32 33 34 35 36 37 38 39 40 41 42 43 44 45 46 47 48 49 50
000
ASUS43 KMKX 291121
RWRWI

WISCONSIN REGIONAL WEATHER ROUNDUP
NATIONAL WEATHER SERVICE MILWAUKEE/SULLIVAN WI
600 AM CDT WED MAR 29 2017

NOTE: "FAIR" INDICATES FEW OR NO CLOUDS BELOW 12,000 FEET WITH NO
SIGNIFICANT WEATHER AND/OR OBSTRUCTIONS TO VISIBILITY.

WIZ001-002-006>008-014>016-023>028-291200-
NORTHWEST WISCONSIN

CITY           SKY/WX    TMP DP  RH WIND       PRES   REMARKS
SUPERIOR ARPT  CLEAR     33  30  88 E13       30.32R WCI  24
ASHLAND        CLOUDY    30  28  92 N7        30.31R WCI  23
HAYWARD        CLOUDY    29  26  89 N7        30.26R WCI  22
SIREN          PTCLDY    33  29  85 CALM      30.26R
CUMBERLAND     MOCLDY    36  28  75 CALM      30.24R
RICE LAKE      MOCLDY    31  29  95 CALM      30.26R
CHETEK         MOCLDY    30  28  92 CALM      30.25R
LADYSMITH      CLOUDY    33  29  86 E3        30.28R
EAU CLAIRE     CLOUDY    35  30  82 NE3       30.24R
MENOMONIE      CLOUDY    35  31  85 CALM      30.24R
NEW RICHMOND   CLOUDY    37  30  74 CALM      30.22R
OSCEOLA        CLOUDY    35  29  80 E3        30.25R
$$

WIZ003>005-009-010-017-018-291200-
NORTH CENTRAL WISCONSIN

CITY           SKY/WX    TMP DP  RH WIND       PRES   REMARKS
MANITOWISH WTR CLEAR     24  24 100 CALM      30.27R
ARBOR VITAE    CLEAR     32  29  88 CALM      30.27R
WOODRUFF       CLEAR     32  29  88 CALM      30.27R
RHINELANDER    CLEAR     30  27  88 E3        30.28R
EAGLE RIVER    CLEAR     26  26 100 CALM      30.28R
LAND O LAKES   CLEAR     25  25  99 CALM      30.30R
PHILLIPS       CLOUDY    27  25  93 CALM      30.26R
TOMAHAWK       CLEAR     24  23  95 CALM      30.29R
MEDFORD        CLOUDY    31  27  88 NE7       30.26R WCI  24
MERRILL        CLOUDY    26  25  96 CALM      30.29R
$$

WIZ029-030-035-036-043>047-291200-
CENTRAL WISCONSIN

CITY           SKY/WX    TMP DP  RH WIND       PRES   REMARKS
WAUSAU         CLOUDY    30  28  92 CALM      30.27R
MOSINEE        CLEAR     34  28  80 E7        30.28R WCI  28
MARSHFIELD     CLOUDY    35  28  75 E6        30.25R WCI  30
STEVENS POINT  CLOUDY    34  29  82 NE7       30.28R WCI  28
WAUPACA        CLEAR     33  31  91 CALM      30.29R
WAUTOMA        PTCLDY    34  31  88 NE7       30.28R WCI  28
WISC RAPIDS    CLOUDY    34  30  85 E3        30.28R
CAMP DOUGLAS   PTCLDY    27  27  98 CALM      30.25R
$$

WIZ011>013-019>022-031-037>040-048>050-291200-
NORTHEAST WISCONSIN

CITY           SKY/WX    TMP DP  RH WIND       PRES   REMARKS
ANTIGO         CLEAR     31  26  81 CALM      30.29R
SHAWANO        CLOUDY    34  30  86 NE3       30.31R
OCONTO         CLEAR     32  28  86 NE5       30.31R WCI  27
STURGEON BAY   CLEAR     36  28  73 NE8       30.28F WCI  30
GREEN BAY      CLOUDY    34  32  92 NE9       30.30R WCI  27
MANITOWOC      CLEAR     34  32  92 N3        30.30R
APPLETON       PTCLDY    36  30  80 NE7       30.27R WCI  30
CLINTONVILLE   CLOUDY    30  30 100 CALM      30.30R
OSHKOSH        CLEAR     36  31  82 NE6       30.27R WCI  31
$$

WIZ032>034-041-042-053>061-291200-
SOUTHWEST WISCONSIN

CITY           SKY/WX    TMP DP  RH WIND       PRES   REMARKS
LA CROSSE      CLOUDY    41  33  73 E7        30.23R
SPARTA         MOCLDY    28  27  96 CALM      30.26R
VIROQUA        CLOUDY    37  33  86 CALM      30.22R
BOSCOBEL       MOCLDY    33  31  92 CALM      30.24R FOG
PRAIRIE DU CHI CLOUDY    39  35  86 CALM      30.22S
PLATTEVILLE    MOCLDY    38  38 100 NE6       30.21F WCI  33
$$

WIZ056-057-062-063-064-067-068-291200-
SOUTH CENTRAL WISCONSIN

CITY           SKY/WX    TMP DP  RH WIND       PRES   REMARKS
REEDSBURG      CLOUDY    33  33 100 NE3       30.24R
BARABOO/DELLS  CLOUDY    34  32  92 CALM      30.25R
LONE ROCK      CLEAR     33  31  92 CALM      30.24R FOG
MINERAL POINT  FOG       37  37 100 E5        30.21S VSB 1/4 WCI  34
MADISON        FOG       31  30  96 CALM      30.25R VSB 1/2
MIDDLETON      CLOUDY    34  34 100 CALM      30.25R
WATERTOWN      FOG       30  30 100 CALM      30.26R VSB 3/4
MONROE         FOG       32  32 100 NE6       30.21S VSB 1/4 WCI  26
JANESVILLE     MOCLDY    32  32 100 CALM      30.23R FOG
$$

WIZ051-052-058>065-066-070>072-291200-
SOUTHEAST WISCONSIN

CITY           SKY/WX    TMP DP  RH WIND       PRES   REMARKS
MILWAUKEE      FOG       33  30  88 N5        30.26R VSB 1/4 WCI  29
WAUKESHA       CLEAR     28  28 100 CALM      30.27R
MILWAUKEE/TIMM CLOUDY    30  28  93 CALM      30.28R
RACINE         FOG       30  28  92 N6        30.27R VSB 1/4 WCI  24
KENOSHA        FOG       31  30  96 NE5       30.26R VSB 1/4 WCI  26
FOND DU LAC    CLEAR     36  29  75 E5        30.27R WCI  32
SHEBOYGAN      CLEAR     33  31  92 NE7       30.28R WCI  27
WEST BEND      CLEAR     30  30 100 CALM      30.26S
JUNEAU         CLEAR     32  31  96 NE3       30.27R
$$

LSZ147-162-291200-
LAKE SUPERIOR

STATION/POSITION TIME  TEMP    WIND        PRES    WAVE
                       AIR SEA DIR/SP/G            HT/PER
                 (UTC) (F)     (DEG/KT/KT) (MB)    (FT/S)
DEVILS ISLAND    1100   35      60/ 17/ 19 1027.7R
PORT WING        1040   34      50/ 11/ 14 1026.4S
SAXON HARBOR     1040   26     200/  2/  3 1025.7R
$$

LMZ867-665-643>646-291200-
LAKE MICHIGAN

STATION/POSITION TIME  TEMP    WIND        PRES    WAVE
                       AIR SEA DIR/SP/G            HT/PER
                 (UTC) (F)     (DEG/KT/KT) (MB)    (FT/S)
CHAMBERS ISLAND  1040   32      20/  8/ 10 1026.4R
NORTHPORT PIER   1040   33     360/  5/  6 1026.8R
SISTER BAY       1006   32        CALM       N/A
KEWAUNEE LAKESHO 1100   36      20/  6/  9 1025.6
SHEBOYGAN LAKESH 1100   37     360/  9/ 10 1026.0R
PORT WASHINGTON  1040   35     350/  4/  7 1025.7R
MILWAUKEE LAKESH 1100   31     350/  2/  3   N/A
KENOSHA   LAKESH 1100   31      20/  5/  6 1024.7
$$

TC  - TEMPERATURE IN CELSIUS
VSB - VISIBILITY IN STATUTE MILES
WCI - WIND CHILL INDEX
HX  - HEAT INDEX





USA.gov is the U.S. government's official web portal to all federal, state and local government web resources and services.